Weather History for Ruston, LA

Change the Weather History Date:

Tuesday, July 22, 2014

  Actual Average Record
Temperature  
Mean Temperature 76 °F -  
Max Temperature 90 °F 92 °F 101 °F (1930)
Min Temperature 65 °F 70 °F 61 °F (1970)
Cooling Degree Days 12    
Growing Degree Days 26 (Base 50)    
Moisture  
Dew Point 70 °F    
Average Humidity 80    
Maximum Humidity 100    
Minimum Humidity 47    
Precipitation  
Precipitation 0.00 in - - ()
Sea Level Pressure  
Sea Level Pressure 30.09 in    
Wind  
Wind Speed 1 mph (NE)    
Max Wind Speed 6 mph    
Max Gust Speed -    
Visibility 9 miles    
Events      
Averages and records for this station are not official NWS values.
T = Trace of Precipitation, MM = Missing Value Source: NWS Daily Summary

Daily Weather History Graph

Daily Weather History Graph

Search for Another Location

Airport:

Trip Planner

Search our weather history database for the weather conditions in past years. The results will help you decide how hot, cold, wet, or windy it might be!

Date:

Astronomy

Jul. 22, 2014 Rise Set
Actual Time 6:18 AM CDT 8:15 PM CDT
Civil Twilight 5:50 AM CDT 8:42 PM CDT
Nautical Twilight 5:17 AM CDT 9:15 PM CDT
Astronomical Twilight 4:41 AM CDT 9:51 PM CDT
Moon 2:49 AM CDT (7/22) 4:54 PM CDT (7/22)
Length of Visible Light 14h 51m
Length of Day
13h 57m
Waning Crescent, 16% of the Moon is Illuminated
Jul 22
Waning Crescent
Jul 26
New
Aug 3
First Quarter
Aug 10
Full
Aug 17
Last Quarter

Hourly Weather History & Observations

Time (CDT) Temp. Heat Index Dew Point Humidity Pressure Visibility Wind Dir Wind Speed Gust Speed Precip Events Conditions
12:15 AM 68.9 °F - 68.9 °F 100% 30.07 in 7.0 mi Calm Calm - N/A   Clear
12:35 AM 68.4 °F - 68.4 °F 100% 30.07 in 7.0 mi Calm Calm - N/A   Clear
12:55 AM 68.2 °F - 68.2 °F 100% 30.08 in 10.0 mi Calm Calm - N/A   Clear
1:15 AM 68.0 °F - 68.0 °F 100% 30.09 in 7.0 mi Calm Calm - N/A   Clear
1:35 AM 67.6 °F - 67.6 °F 100% 30.09 in 7.0 mi Calm Calm - N/A   Clear
1:55 AM 67.3 °F - 67.3 °F 100% 30.09 in 7.0 mi Calm Calm - N/A   Clear
2:15 AM 67.3 °F - 67.3 °F 100% 30.09 in 7.0 mi Calm Calm - N/A   Clear
2:35 AM 67.1 °F - 67.1 °F 100% 30.09 in 10.0 mi Calm Calm - N/A   Clear
2:55 AM 67.1 °F - 67.1 °F 100% 30.09 in 7.0 mi Calm Calm - N/A   Clear
3:15 AM 67.3 °F - 67.3 °F 100% 30.09 in 10.0 mi Calm Calm - N/A   Clear
3:35 AM 66.9 °F - 66.9 °F 100% 30.08 in 10.0 mi Calm Calm - N/A   Clear
3:55 AM 66.4 °F - 66.4 °F 100% 30.08 in 7.0 mi Calm Calm - N/A   Clear
4:15 AM 66.4 °F - 66.4 °F 100% 30.08 in 7.0 mi Calm Calm - N/A   Clear
4:35 AM 66.4 °F - 66.4 °F 100% 30.08 in 7.0 mi Calm Calm - N/A   Clear
4:55 AM 66.7 °F - 66.7 °F 100% 30.08 in 5.0 mi Calm Calm - N/A   Clear
5:15 AM 65.8 °F - 65.8 °F 100% 30.09 in 7.0 mi Calm Calm - N/A   Clear
6:35 AM 66.4 °F - 66.4 °F 100% 30.10 in 4.0 mi Calm Calm - N/A   Clear
6:55 AM 65.8 °F - 65.8 °F 100% 30.11 in 5.0 mi Calm Calm - N/A   Clear
7:15 AM 66.6 °F - 66.6 °F 100% 30.10 in 7.0 mi Calm Calm - N/A   Clear
7:35 AM 68.0 °F - 68.0 °F 100% 30.11 in 10.0 mi Calm Calm - N/A   Clear
7:55 AM 70.3 °F - 70.3 °F 100% 30.12 in 10.0 mi Calm Calm - N/A   Clear
8:15 AM 72.3 °F - 72.3 °F 100% 30.12 in 10.0 mi Calm Calm - N/A   Clear
8:35 AM 74.7 °F - 72.9 °F 94% 30.12 in 10.0 mi Calm Calm - N/A   Clear
8:55 AM 76.1 °F - 73.0 °F 90% 30.12 in 10.0 mi Calm Calm - N/A   Clear
9:15 AM 78.3 °F - 72.9 °F 83% 30.11 in 10.0 mi Calm Calm - N/A   Clear
9:35 AM 79.5 °F - 72.7 °F 79% 30.11 in 10.0 mi Calm Calm - N/A   Clear
9:55 AM 80.6 °F 84.4 °F 71.1 °F 73% 30.12 in 10.0 mi Calm Calm - N/A   Clear
10:15 AM 82.2 °F 86.6 °F 71.2 °F 69% 30.12 in 7.0 mi Calm Calm - N/A   Clear
10:35 AM 82.9 °F 87.2 °F 70.3 °F 66% 30.12 in 10.0 mi ENE 3.5 mph - N/A   Clear
10:55 AM 83.7 °F 87.7 °F 70.0 °F 63% 30.11 in 10.0 mi NE 4.6 mph - N/A   Clear
11:15 AM 84.0 °F 88.1 °F 69.8 °F 62% 30.11 in 10.0 mi Calm Calm - N/A   Scattered Clouds
11:35 AM 84.7 °F 88.8 °F 69.6 °F 60% 30.11 in 10.0 mi NNE 3.5 mph - N/A   Mostly Cloudy
12:15 PM 86.2 °F 90.4 °F 69.4 °F 57% 30.12 in 10.0 mi SE 3.5 mph - N/A   Scattered Clouds
12:35 PM 85.8 °F 90.1 °F 69.3 °F 58% 30.12 in 10.0 mi NNE 4.6 mph - N/A   Scattered Clouds
12:55 PM 86.0 °F 89.7 °F 68.9 °F 56% 30.11 in 10.0 mi North 3.5 mph - N/A   Scattered Clouds
1:15 PM 86.9 °F 89.9 °F 67.3 °F 52% 30.11 in 10.0 mi Calm Calm - N/A   Scattered Clouds
1:35 PM 88.0 °F 91.8 °F 68.4 °F 52% 30.11 in 10.0 mi NE 3.5 mph - N/A   Clear
1:55 PM 87.1 °F 91.3 °F 69.3 °F 55% 30.10 in 10.0 mi NNE 5.8 mph - N/A   Scattered Clouds
2:15 PM 86.5 °F 89.6 °F 67.5 °F 53% 30.10 in 10.0 mi Calm Calm - N/A   Scattered Clouds
2:35 PM 88.3 °F 91.6 °F 67.6 °F 50% 30.10 in 10.0 mi East 5.8 mph - N/A   Scattered Clouds
2:55 PM 88.9 °F 93.0 °F 68.4 °F 51% 30.09 in 10.0 mi NNE 4.6 mph - N/A   Scattered Clouds
3:15 PM 88.5 °F 91.9 °F 67.8 °F 50% 30.09 in 10.0 mi NNE 3.5 mph - N/A   Scattered Clouds
3:35 PM 86.0 °F 89.7 °F 68.9 °F 56% 30.09 in 10.0 mi Calm Calm - N/A   Scattered Clouds
3:55 PM 88.0 °F 91.0 °F 67.3 °F 50% 30.08 in 10.0 mi Calm Calm - N/A   Scattered Clouds
4:15 PM 87.6 °F 91.5 °F 68.5 °F 53% 30.08 in 10.0 mi NE 3.5 mph - N/A   Scattered Clouds
4:35 PM 88.9 °F 91.4 °F 66.2 °F 47% 30.07 in 10.0 mi Calm Calm - N/A   Scattered Clouds
4:55 PM 87.4 °F 90.8 °F 67.8 °F 52% 30.07 in 10.0 mi NE 3.5 mph - N/A   Scattered Clouds
5:15 PM 87.6 °F 91.5 °F 68.7 °F 53% 30.07 in 10.0 mi ENE 4.6 mph - N/A   Scattered Clouds
5:35 PM 86.2 °F 90.4 °F 69.4 °F 57% 30.06 in 10.0 mi NNE 3.5 mph - N/A   Clear
5:55 PM 88.2 °F 92.5 °F 69.3 °F 53% 30.06 in 10.0 mi East 3.5 mph - N/A   Clear
6:15 PM 87.6 °F 91.1 °F 68.2 °F 52% 30.06 in 10.0 mi NE 4.6 mph - N/A   Clear
6:35 PM 87.3 °F 91.6 °F 69.4 °F 55% 30.06 in 10.0 mi NE 4.6 mph - N/A   Clear
6:55 PM 86.9 °F 92.1 °F 70.3 °F 58% 30.06 in 10.0 mi NNE 3.5 mph - N/A   Clear
7:15 PM 85.1 °F 91.1 °F 72.0 °F 65% 30.06 in 10.0 mi Calm Calm - N/A   Clear
7:35 PM 81.3 °F 87.8 °F 75.7 °F 83% 30.07 in 10.0 mi Calm Calm - N/A   Clear
7:55 PM 81.7 °F 88.5 °F 75.6 °F 82% 30.07 in 10.0 mi Calm Calm - N/A   Clear
8:15 PM 77.9 °F - 75.2 °F 91% 30.07 in 10.0 mi Calm Calm - N/A   Clear
8:35 PM 76.5 °F - 75.0 °F 95% 30.07 in 10.0 mi Calm Calm - N/A   Clear
8:55 PM 75.7 °F - 74.7 °F 96% 30.08 in 10.0 mi Calm Calm - N/A   Clear
9:15 PM 74.8 °F - 74.3 °F 98% 30.09 in 10.0 mi Calm Calm - N/A   Clear
9:35 PM 75.2 °F - 74.5 °F 98% 30.09 in 10.0 mi Calm Calm - N/A   Clear
9:55 PM 74.1 °F - 73.6 °F 98% 30.09 in 10.0 mi Calm Calm - N/A   Clear
10:15 PM 73.8 °F - 73.6 °F 99% 30.09 in 7.0 mi Calm Calm - N/A   Clear
10:35 PM 73.8 °F - 73.8 °F 100% 30.09 in 10.0 mi Calm Calm - N/A   Clear
10:55 PM 73.4 °F - 73.2 °F 99% 30.09 in 7.0 mi Calm Calm - N/A   Clear
11:15 PM 72.5 °F - 72.5 °F 100% 30.09 in 4.0 mi Calm Calm - N/A   Clear
11:35 PM 72.5 °F - 72.5 °F 100% 30.09 in 7.0 mi Calm Calm - N/A   Clear
11:55 PM 72.3 °F - 72.3 °F 100% 30.09 in 7.0 mi Calm Calm - N/A   Clear